HVN276 WADD-WBKK

Flight info

Callsign HVN276
Flight time N/A
Altitude 38000
Route DOBMA1A DOBMA M522 ELPOX DCT
Aircraft A359/H-SDE2E3GHIJ3J4J5LM1ORWXY/LB1D1

Departure

Time 2026-05-08 05:59
Airport Denpasar I Gusti Ngurah Rai International Airport (WADD)

Arrival

Time N/A
Airport Kota Kinabalu International Airport (WBKK)
Time Latitude Longitude Altitude Speed Heading
2026-05-08 05:47 -8.74566 115.16537 27 ft 0 kts 357°
2026-05-08 05:52 -8.74577 115.16538 27 ft 2 kts 357°
2026-05-08 05:52 -8.74593 115.16539 25 ft 2 kts 357°
2026-05-08 05:52 -8.74610 115.16540 25 ft 2 kts 357°
2026-05-08 05:53 -8.74626 115.16540 25 ft 2 kts 358°
2026-05-08 05:53 -8.74642 115.16542 26 ft 2 kts 330°
2026-05-08 05:53 -8.74656 115.16550 25 ft 2 kts 322°
2026-05-08 05:53 -8.74669 115.16561 24 ft 2 kts 309°
2026-05-08 05:54 -8.74676 115.16573 25 ft 1 kts 279°
2026-05-08 05:54 -8.74676 115.16574 25 ft 0 kts 275°
2026-05-08 05:54 -8.74677 115.16564 26 ft 8 kts 268°
2026-05-08 05:54 -8.74681 115.16440 27 ft 23 kts 268°
2026-05-08 05:55 -8.74691 115.16272 27 ft 25 kts 266°
2026-05-08 05:55 -8.74701 115.16089 27 ft 27 kts 268°
2026-05-08 05:55 -8.74708 115.15893 27 ft 29 kts 268°
2026-05-08 05:55 -8.74717 115.15684 26 ft 31 kts 268°
2026-05-08 05:56 -8.74726 115.15462 26 ft 32 kts 266°
2026-05-08 05:56 -8.74746 115.15402 31 ft 2 kts 226°
2026-05-08 05:56 -8.74797 115.15390 30 ft 0 kts 179°
2026-05-08 05:57 -8.74861 115.15393 26 ft 19 kts 170°
2026-05-08 05:58 -8.74890 115.15422 27 ft 7 kts 106°
2026-05-08 05:58 -8.74891 115.15479 27 ft 0 kts 87°
2026-05-08 05:58 -8.74887 115.15562 27 ft 42 kts 87°
2026-05-08 05:58 -8.74866 115.16115 27 ft 112 kts 87°
2026-05-08 05:59 -8.74822 115.17100 214 ft 153 kts 90°
2026-05-08 05:59 -8.74775 115.18160 1155 ft 152 kts 91°
2026-05-08 05:59 -8.74745 115.19246 1942 ft 160 kts 91°
2026-05-08 05:59 -8.74710 115.20445 2414 ft 181 kts 89°
2026-05-08 06:00 -8.74655 115.21797 2825 ft 200 kts 89°
2026-05-08 06:00 -8.74589 115.23244 3428 ft 218 kts 88°
2026-05-08 06:00 -8.74520 115.24853 3893 ft 238 kts 88°
2026-05-08 06:00 -8.74448 115.26555 4616 ft 246 kts 88°
2026-05-08 06:01 -8.74372 115.28302 5364 ft 252 kts 88°
2026-05-08 06:01 -8.74296 115.30109 6108 ft 260 kts 88°
2026-05-08 06:01 -8.74221 115.31945 6837 ft 266 kts 88°
2026-05-08 06:01 -8.74144 115.33836 7608 ft 271 kts 88°
2026-05-08 06:02 -8.74065 115.35770 8405 ft 277 kts 88°
2026-05-08 06:02 -8.73984 115.37747 9134 ft 286 kts 88°
2026-05-08 06:02 -8.73900 115.39777 9863 ft 294 kts 88°
2026-05-08 06:02 -8.73813 115.41882 10425 ft 307 kts 88°
2026-05-08 06:03 -8.73720 115.44115 10766 ft 327 kts 88°
2026-05-08 06:03 -8.73625 115.46436 11153 ft 343 kts 88°
2026-05-08 06:03 -8.73519 115.48885 11714 ft 352 kts 88°
2026-05-08 06:03 -8.73025 115.51323 12211 ft 360 kts 68°
2026-05-08 06:04 -8.71647 115.53423 12857 ft 365 kts 45°
2026-05-08 06:04 -8.69734 115.55152 13498 ft 369 kts 39°
2026-05-08 06:04 -8.67784 115.56880 14063 ft 375 kts 42°
2026-05-08 06:04 -8.65865 115.58687 14616 ft 380 kts 43°
2026-05-08 06:05 -8.63960 115.60539 15197 ft 383 kts 44°
2026-05-08 06:05 -8.62046 115.62429 15778 ft 386 kts 44°
2026-05-08 06:05 -8.60114 115.64352 16358 ft 390 kts 45°
2026-05-08 06:05 -8.58174 115.66287 16905 ft 394 kts 45°
2026-05-08 06:06 -8.56054 115.68043 17384 ft 399 kts 31°
2026-05-08 06:06 -8.53481 115.69083 17959 ft 399 kts 11°
2026-05-08 06:06 -8.50713 115.69215 18466 ft 399 kts 353°
2026-05-08 06:06 -8.47964 115.68848 18966 ft 401 kts 350°
2026-05-08 06:07 -8.45189 115.68449 19494 ft 403 kts 351°
2026-05-08 06:07 -8.42393 115.68116 20040 ft 406 kts 354°
2026-05-08 06:07 -8.39565 115.67941 20610 ft 408 kts 355°
2026-05-08 06:07 -8.36737 115.67799 21150 ft 411 kts 355°
2026-05-08 06:08 -8.33859 115.67641 21753 ft 413 kts 355°
2026-05-08 06:08 -8.30984 115.67475 22311 ft 416 kts 355°
2026-05-08 06:08 -8.28096 115.67305 22873 ft 418 kts 355°
2026-05-08 06:08 -8.25178 115.67131 23423 ft 420 kts 355°
2026-05-08 06:09 -8.22237 115.66954 23854 ft 424 kts 355°
2026-05-08 06:09 -8.19288 115.66777 24288 ft 427 kts 355°
2026-05-08 06:09 -8.16357 115.66600 24734 ft 430 kts 355°
2026-05-08 06:09 -8.13320 115.66417 25214 ft 432 kts 355°
2026-05-08 06:10 -8.10342 115.66237 25689 ft 435 kts 355°
2026-05-08 06:10 -8.07310 115.66054 26163 ft 439 kts 355°
2026-05-08 06:10 -8.04251 115.65869 26658 ft 441 kts 355°
2026-05-08 06:10 -8.01171 115.65684 27145 ft 444 kts 355°
2026-05-08 06:11 -7.98069 115.65497 27619 ft 448 kts 355°
2026-05-08 06:11 -7.94945 115.65312 28091 ft 451 kts 355°
2026-05-08 06:11 -7.91810 115.65122 28570 ft 454 kts 355°
2026-05-08 06:11 -7.88648 115.64929 29018 ft 457 kts 355°
2026-05-08 06:12 -7.85447 115.64734 29474 ft 460 kts 355°
2026-05-08 06:12 -7.82242 115.64539 29883 ft 464 kts 355°
2026-05-08 06:12 -7.79013 115.64343 30243 ft 467 kts 355°
2026-05-08 06:12 -7.75766 115.64146 30635 ft 470 kts 355°
2026-05-08 06:13 -7.72490 115.63947 31011 ft 472 kts 355°
2026-05-08 06:13 -7.69214 115.63749 31391 ft 474 kts 355°
2026-05-08 06:13 -7.65901 115.63549 31772 ft 476 kts 355°
2026-05-08 06:13 -7.62593 115.63347 32137 ft 478 kts 355°
2026-05-08 06:14 -7.59289 115.62976 32474 ft 480 kts 348°
2026-05-08 06:14 -7.56078 115.62078 32818 ft 480 kts 338°
2026-05-08 06:14 -7.53070 115.60602 33137 ft 482 kts 328°
2026-05-08 06:14 -7.50356 115.58700 33503 ft 482 kts 322°
2026-05-08 06:15 -7.47645 115.56642 33863 ft 483 kts 322°
2026-05-08 06:15 -7.44951 115.54613 34178 ft 484 kts 323°
2026-05-08 06:15 -7.42245 115.52585 34494 ft 484 kts 323°
2026-05-08 06:15 -7.39569 115.50584 34806 ft 485 kts 323°
2026-05-08 06:16 -7.36863 115.48562 35132 ft 485 kts 322°
2026-05-08 06:16 -7.34154 115.46539 35459 ft 485 kts 322°
2026-05-08 06:16 -7.31440 115.44513 35788 ft 485 kts 322°
2026-05-08 06:16 -7.28734 115.42495 36211 ft 483 kts 322°
2026-05-08 06:17 -7.23327 115.38462 36828 ft 483 kts 322°
2026-05-08 06:17 -7.20616 115.36441 37161 ft 483 kts 322°
2026-05-08 06:17 -7.17930 115.34438 37476 ft 483 kts 322°
2026-05-08 06:18 -7.15226 115.32423 37808 ft 482 kts 322°
2026-05-08 06:18 -7.12522 115.30407 37903 ft 483 kts 322°
2026-05-08 06:18 -7.07126 115.26385 38106 ft 483 kts 322°
2026-05-08 06:19 -7.04431 115.24376 38460 ft 481 kts 322°
2026-05-08 06:19 -7.01743 115.22375 38729 ft 480 kts 322°
2026-05-08 06:19 -6.99087 115.20398 38991 ft 479 kts 322°
2026-05-08 06:19 -6.96419 115.18412 39199 ft 480 kts 322°
2026-05-08 06:20 -6.91014 115.14388 39396 ft 485 kts 322°
2026-05-08 06:20 -6.88298 115.12366 39497 ft 488 kts 322°
2026-05-08 06:20 -6.85489 115.10419 39537 ft 492 kts 327°
2026-05-08 06:21 -6.82398 115.08925 39593 ft 497 kts 339°
2026-05-08 06:21 -6.79038 115.08035 39646 ft 501 kts 349°
2026-05-08 06:21 -6.72063 115.07455 39742 ft 505 kts 355°
2026-05-08 06:22 -6.65024 115.07116 39817 ft 506 kts 355°
2026-05-08 06:22 -6.57995 115.06765 39813 ft 506 kts 355°
2026-05-08 06:23 -6.50967 115.06379 39806 ft 505 kts 355°
2026-05-08 06:23 -6.43947 115.05980 39807 ft 505 kts 355°
2026-05-08 06:24 -6.36923 115.05581 39811 ft 505 kts 355°
2026-05-08 06:24 -6.29905 115.05184 39813 ft 505 kts 355°
2026-05-08 06:25 -6.22939 115.04792 39814 ft 505 kts 355°
2026-05-08 06:25 -6.15909 115.04395 39807 ft 506 kts 355°
2026-05-08 06:26 -6.08886 115.03998 39807 ft 506 kts 355°
2026-05-08 06:26 -6.01859 115.03601 39802 ft 506 kts 355°
2026-05-08 06:27 -5.94830 115.03203 39811 ft 506 kts 355°
2026-05-08 06:27 -5.87810 115.02809 39805 ft 499 kts 355°
2026-05-08 06:28 -5.80984 115.02429 39808 ft 488 kts 355°
2026-05-08 06:28 -5.74137 115.02041 39810 ft 497 kts 355°
2026-05-08 06:29 -5.67175 115.01647 39814 ft 504 kts 355°
2026-05-08 06:29 -5.60153 115.01249 39805 ft 506 kts 355°
2026-05-08 06:30 -5.53109 115.00854 39803 ft 506 kts 355°
2026-05-08 06:30 -5.46085 115.00459 39805 ft 506 kts 355°
2026-05-08 06:31 -5.39062 115.00063 39800 ft 506 kts 355°
2026-05-08 06:31 -5.32035 114.99669 39808 ft 506 kts 355°
2026-05-08 06:32 -5.25043 114.99277 39804 ft 505 kts 355°
2026-05-08 06:32 -5.18026 114.98882 39803 ft 505 kts 356°
2026-05-08 06:33 -5.10998 114.98486 39805 ft 505 kts 356°
2026-05-08 06:33 -5.03998 114.98093 39802 ft 505 kts 356°
2026-05-08 06:34 -4.96980 114.97700 39801 ft 504 kts 356°
2026-05-08 06:34 -4.89978 114.97306 39805 ft 504 kts 356°
2026-05-08 06:35 -4.82963 114.96911 39804 ft 504 kts 356°
2026-05-08 06:35 -4.75962 114.96517 39803 ft 504 kts 356°
2026-05-08 06:36 -4.68963 114.96123 39805 ft 504 kts 356°
2026-05-08 06:36 -4.62011 114.95734 39803 ft 504 kts 356°
2026-05-08 06:37 -4.55003 114.95341 39806 ft 504 kts 356°
2026-05-08 06:37 -4.48007 114.94949 39807 ft 504 kts 356°
2026-05-08 06:38 -4.41020 114.94556 39804 ft 503 kts 356°
2026-05-08 06:38 -4.34018 114.94164 39800 ft 504 kts 356°
2026-05-08 06:39 -4.27009 114.93870 39801 ft 504 kts 358°
2026-05-08 06:39 -4.21195 114.93719 39803 ft 503 kts 358°
2026-05-08 06:40 -4.14176 114.93531 39802 ft 503 kts 358°
2026-05-08 06:40 -4.07174 114.93319 39802 ft 504 kts 358°
2026-05-08 06:41 -4.00182 114.93098 39804 ft 504 kts 358°
2026-05-08 06:41 -3.93167 114.92874 39796 ft 504 kts 358°
2026-05-08 06:42 -3.86159 114.92653 39794 ft 504 kts 358°
2026-05-08 06:42 -3.79178 114.92433 39792 ft 504 kts 358°
2026-05-08 06:43 -3.72174 114.92212 39779 ft 504 kts 358°
2026-05-08 06:43 -3.65162 114.91990 39765 ft 503 kts 358°
2026-05-08 06:44 -3.58174 114.91770 39758 ft 503 kts 358°
2026-05-08 06:44 -3.51191 114.91550 39753 ft 502 kts 358°
2026-05-08 06:45 -3.44206 114.91330 39749 ft 502 kts 358°
2026-05-08 06:45 -3.37230 114.91110 39751 ft 501 kts 358°
2026-05-08 06:46 -3.30261 114.90890 39749 ft 501 kts 358°
2026-05-08 06:46 -3.23281 114.90670 39752 ft 501 kts 358°
2026-05-08 06:47 -3.16311 114.90451 39751 ft 501 kts 358°
2026-05-08 06:47 -3.09351 114.90231 39753 ft 501 kts 358°
2026-05-08 06:48 -3.02375 114.90011 39754 ft 500 kts 358°
2026-05-08 06:48 -2.95432 114.89793 39751 ft 500 kts 358°
2026-05-08 06:49 -2.88512 114.89575 39751 ft 500 kts 359°
2026-05-08 06:49 -2.81512 114.89354 39752 ft 500 kts 359°
2026-05-08 06:50 -2.74592 114.89137 39753 ft 500 kts 359°
2026-05-08 06:50 -2.67615 114.88918 39759 ft 501 kts 359°
2026-05-08 06:51 -2.60645 114.88698 39758 ft 501 kts 359°
2026-05-08 06:51 -2.53679 114.88478 39761 ft 501 kts 359°
2026-05-08 06:52 -2.46714 114.88259 39759 ft 501 kts 359°
2026-05-08 06:52 -2.39743 114.88040 39760 ft 501 kts 359°
2026-05-08 06:53 -2.32779 114.87821 39764 ft 501 kts 359°
2026-05-08 06:53 -2.25851 114.87603 39764 ft 501 kts 359°
2026-05-08 06:54 -2.18887 114.87384 39770 ft 501 kts 359°
2026-05-08 06:54 -2.11908 114.87165 39770 ft 501 kts 359°
2026-05-08 06:55 -2.04932 114.86946 39771 ft 502 kts 359°
2026-05-08 06:55 -1.97958 114.86726 39774 ft 502 kts 359°
2026-05-08 06:56 -1.90978 114.86507 39776 ft 502 kts 359°
2026-05-08 06:56 -1.84008 114.86288 39777 ft 502 kts 359°
2026-05-08 06:57 -1.77020 114.86068 39778 ft 502 kts 359°
2026-05-08 06:57 -1.70038 114.85848 39781 ft 502 kts 359°
2026-05-08 06:58 -1.63053 114.85629 39783 ft 502 kts 359°
2026-05-08 06:58 -1.56060 114.85409 39787 ft 503 kts 359°
2026-05-08 06:59 -1.49069 114.85190 39788 ft 503 kts 359°
2026-05-08 06:59 -1.42071 114.84970 39788 ft 503 kts 359°
2026-05-08 07:00 -1.35072 114.84749 39794 ft 503 kts 359°
2026-05-08 07:00 -1.28128 114.84531 39792 ft 503 kts 359°
2026-05-08 07:01 -1.21128 114.84311 39792 ft 503 kts 359°
2026-05-08 07:01 -1.14125 114.84092 39796 ft 503 kts 359°
2026-05-08 07:02 -1.07125 114.83872 39795 ft 503 kts 359°
2026-05-08 07:02 -1.00140 114.83652 39792 ft 503 kts 359°
2026-05-08 07:03 -0.93129 114.83549 39793 ft 503 kts
2026-05-08 07:03 -0.86213 114.84586 39799 ft 502 kts 11°
2026-05-08 07:04 -0.79342 114.85898 39797 ft 503 kts 12°
2026-05-08 07:04 -0.72479 114.87234 39797 ft 503 kts 12°
2026-05-08 07:05 -0.65593 114.88554 39795 ft 503 kts 12°
2026-05-08 07:05 -0.58710 114.89861 39800 ft 503 kts 12°
2026-05-08 07:06 -0.51841 114.91163 39800 ft 504 kts 12°
2026-05-08 07:06 -0.44951 114.92470 39799 ft 504 kts 12°
2026-05-08 07:07 -0.38051 114.93779 39801 ft 504 kts 12°
2026-05-08 07:07 -0.31166 114.95086 39806 ft 504 kts 12°
2026-05-08 07:08 -0.24292 114.96391 39799 ft 505 kts 12°
2026-05-08 07:08 -0.17361 114.97707 39801 ft 505 kts 11°
2026-05-08 07:09 -0.10446 114.99019 39804 ft 506 kts 11°
2026-05-08 07:09 -0.03529 115.00331 39806 ft 506 kts 11°
2026-05-08 07:10 0.03355 115.01638 39805 ft 507 kts 11°
2026-05-08 07:10 0.10281 115.02952 39809 ft 507 kts 11°
2026-05-08 07:11 0.17209 115.04267 39805 ft 507 kts 11°
2026-05-08 07:11 0.24148 115.05584 39811 ft 507 kts 11°
2026-05-08 07:12 0.31084 115.06900 39810 ft 507 kts 11°
2026-05-08 07:12 0.38028 115.08218 39812 ft 507 kts 11°
2026-05-08 07:13 0.44955 115.09533 39810 ft 507 kts 11°
2026-05-08 07:13 0.51876 115.10846 39815 ft 507 kts 11°
2026-05-08 07:14 0.58778 115.12156 39819 ft 507 kts 11°
2026-05-08 07:14 0.65715 115.13473 39822 ft 507 kts 11°
2026-05-08 07:15 0.72638 115.14788 39825 ft 507 kts 11°
2026-05-08 07:15 0.79586 115.16106 39827 ft 507 kts 11°
2026-05-08 07:16 0.86502 115.17419 39832 ft 507 kts 11°
2026-05-08 07:16 0.93434 115.18734 39831 ft 507 kts 11°
2026-05-08 07:17 1.00330 115.20044 39833 ft 507 kts 11°
2026-05-08 07:17 1.07265 115.21361 39834 ft 507 kts 11°
2026-05-08 07:18 1.14179 115.22674 39827 ft 507 kts 11°
2026-05-08 07:18 1.21105 115.23989 39827 ft 507 kts 11°
2026-05-08 07:19 1.28033 115.25305 39824 ft 507 kts 11°
2026-05-08 07:19 1.34964 115.26621 39824 ft 507 kts 11°
2026-05-08 07:20 1.41886 115.27935 39820 ft 507 kts 11°
2026-05-08 07:20 1.48829 115.29253 39824 ft 507 kts 11°
2026-05-08 07:21 1.55750 115.30567 39824 ft 507 kts 11°
2026-05-08 07:21 1.62690 115.31886 39825 ft 507 kts 11°
2026-05-08 07:22 1.69623 115.33203 39818 ft 507 kts 11°
2026-05-08 07:22 1.76557 115.34521 39818 ft 507 kts 11°
2026-05-08 07:23 1.78858 115.34958 39819 ft 508 kts 11°